Satellite-Ground Cal/Val Region Overpasses Predictions

Prediction of Satellite NPP Overpassing Cal/Val Region: PacNW

Region Location: (Latitude: 10.00, Longitude: 139.50) to (Latitude: 22.70, Longitude: 165.60).

Table of predicted overpasses for the next 14.0 days since TLE Epoch: 4/3/2021
Interval Starting Time Starting Location Ending Time Ending Location
1 04/03/2021 14:33:48 ( 18.25, 165.59) 04/03/2021 14:36:08 ( 10.03, 163.67)
2 04/03/2021 16:14:03 ( 22.64, 141.29) 04/03/2021 16:16:09 ( 15.25, 139.50)
3 04/04/2021 03:23:08 ( 10.05, 148.82) 04/04/2021 03:26:43 ( 22.67, 145.82)
4 04/04/2021 15:55:00 ( 22.65, 146.06) 04/04/2021 15:58:35 ( 10.03, 143.05)
5 04/05/2021 03:04:05 ( 10.03, 153.58) 04/05/2021 03:07:40 ( 22.66, 150.58)
6 04/05/2021 15:35:58 ( 22.67, 150.82) 04/05/2021 15:39:33 ( 10.04, 147.82)
7 04/06/2021 02:45:03 ( 10.02, 158.34) 04/06/2021 02:48:38 ( 22.64, 155.34)
8 04/06/2021 15:16:55 ( 22.68, 155.58) 04/06/2021 15:20:30 ( 10.05, 152.58)
9 04/07/2021 02:26:00 ( 10.01, 163.11) 04/07/2021 02:29:36 ( 22.69, 160.09)
10 04/07/2021 14:57:53 ( 22.69, 160.34) 04/07/2021 15:01:29 ( 10.01, 157.33)
11 04/08/2021 02:09:43 ( 19.69, 165.59) 04/08/2021 02:10:34 ( 22.68, 164.85)
12 04/08/2021 03:48:28 ( 10.01, 142.49) 04/08/2021 03:52:02 ( 22.57, 139.50)
13 04/08/2021 14:38:50 ( 22.70, 165.11) 04/08/2021 14:42:26 ( 10.02, 162.09)
14 04/08/2021 16:20:20 ( 22.69, 139.73) 04/08/2021 16:20:35 ( 21.81, 139.51)
15 04/09/2021 03:29:26 ( 10.06, 147.24) 04/09/2021 03:33:01 ( 22.68, 144.24)
16 04/09/2021 16:01:18 ( 22.70, 144.49) 04/09/2021 16:04:54 ( 10.02, 141.47)
17 04/10/2021 03:10:24 ( 10.05, 152.00) 04/10/2021 03:13:59 ( 22.67, 149.00)
18 04/10/2021 15:42:17 ( 22.65, 149.24) 04/10/2021 15:45:52 ( 10.03, 146.24)
19 04/11/2021 02:51:21 ( 10.04, 156.77) 04/11/2021 02:54:56 ( 22.66, 153.76)
20 04/11/2021 15:23:14 ( 22.66, 154.00) 04/11/2021 15:26:49 ( 10.04, 151.00)
21 04/12/2021 02:32:19 ( 10.03, 161.53) 04/12/2021 02:35:54 ( 22.65, 158.52)
22 04/12/2021 15:04:12 ( 22.67, 158.76) 04/12/2021 15:07:47 ( 10.05, 155.76)
23 04/13/2021 02:14:07 ( 13.02, 165.60) 04/13/2021 02:16:51 ( 22.64, 163.29)
24 04/13/2021 03:54:46 ( 10.03, 140.91) 04/13/2021 03:56:29 ( 16.08, 139.51)
25 04/13/2021 14:45:09 ( 22.67, 163.53) 04/13/2021 14:48:44 ( 10.05, 160.52)
26 04/14/2021 03:35:44 ( 10.02, 145.67) 04/14/2021 03:39:19 ( 22.64, 142.67)
27 04/14/2021 14:29:19 ( 11.41, 165.59) 04/14/2021 14:29:43 ( 10.00, 165.27)
28 04/14/2021 16:07:37 ( 22.67, 142.91) 04/14/2021 16:11:12 ( 10.05, 139.91)
29 04/15/2021 03:16:41 ( 10.02, 150.44) 04/15/2021 03:20:17 ( 22.70, 147.42)
30 04/15/2021 15:48:34 ( 22.68, 147.67) 04/15/2021 15:52:10 ( 10.00, 144.66)
31 04/16/2021 02:57:39 ( 10.01, 155.20) 04/16/2021 03:01:15 ( 22.69, 152.18)
32 04/16/2021 15:29:32 ( 22.69, 152.43) 04/16/2021 15:33:08 ( 10.01, 149.42)
